| time (UTC) | temp C | wind direction | speed KPH | gust KPH | rain 1hr cm | rain 24hr cm | rain mn cm | humidity % | barometer mb |
| 20260507220724 | -17 | 315 | 0.0 | 0.0 | 0.00 | 0.00 | 0.00 | 1013.0 | |
| 20260507215921 | -17 | 45 | 0.0 | 1.6 | 0.00 | 0.00 | 0.00 | 1013.0 | |
| 20260507215115 | -17 | 90 | 0.0 | 4.8 | 0.00 | 0.00 | 0.00 | 1013.0 | |
| 20260507214310 | -17 | 90 | 1.6 | 3.2 | 0.00 | 0.00 | 0.00 | 1013.0 | |
| 20260507213509 | -17 | 90 | 0.0 | 1.6 | 0.00 | 0.00 | 0.00 | 1012.9 | |
| 20260507212706 | -17 | 90 | 1.6 | 4.8 | 0.00 | 0.00 | 0.00 | 1012.9 | |
| 20260507211902 | -17 | 315 | 1.6 | 3.2 | 0.00 | 0.00 | 0.00 | 1012.8 | |
| 20260507211058 | -17 | 45 | 0.0 | 3.2 | 0.00 | 0.00 | 0.00 | 1012.8 | |
| 20260507210254 | -17 | 90 | 4.8 | 4.8 | 0.00 | 0.00 | 0.00 | 1012.8 | |
| 20260507205448 | -17 | 90 | 0.0 | 3.2 | 0.00 | 0.00 | 0.00 | 1012.5 | |
| 20260507204645 | -17 | 315 | 1.6 | 4.8 | 0.00 | 0.00 | 0.00 | 1012.5 | |
| 20260507203841 | -17 | 45 | 1.6 | 6.4 | 0.00 | 0.00 | 0.00 | 1012.4 | |
| 20260507203035 | -17 | 45 | 1.6 | 6.4 | 0.00 | 0.00 | 0.00 | 1012.2 | |
| 20260507202227 | -17 | 90 | 1.6 | 6.4 | 0.00 | 0.00 | 0.00 | 1012.0 | |
| 20260507201425 | -17 | 90 | 1.6 | 9.7 | 0.00 | 0.00 | 0.00 | 1012.0 | |
| 20260507200618 | -17 | 90 | 1.6 | 6.4 | 0.00 | 0.00 | 0.00 | 1011.9 | |
| 20260507195813 | -17 | 45 | 1.6 | 6.4 | 0.00 | 0.00 | 0.00 | 1011.7 | |
| 20260507195009 | -17 | 270 | 1.6 | 4.8 | 0.00 | 0.00 | 0.00 | 1011.6 | |
| 20260507194205 | -17 | 90 | 3.2 | 6.4 | 0.00 | 0.00 | 0.00 | 1011.6 | |
| 20260507193401 | -17 | 90 | 1.6 | 3.2 | 0.00 | 0.00 | 0.00 | 1011.6 | |
| 20260507192554 | -17 | 315 | 1.6 | 1.6 | 0.00 | 0.00 | 0.00 | 1011.6 | |
| 20260507191747 | -17 | 90 | 0.0 | 1.6 | 0.00 | 0.00 | 0.00 | 1011.5 | |
| 20260507190940 | -17 | 90 | 1.6 | 1.6 | 0.00 | 0.00 | 0.00 | 1011.4 | |
| 20260507190134 | -17 | 45 | 1.6 | 3.2 | 0.00 | 0.00 | 0.00 | 1011.2 | |
| 20260507185327 | -17 | 90 | 0.0 | 3.2 | 0.00 | 0.00 | 0.00 | 1011.0 | |
| 20260507184520 | -17 | 90 | 1.6 | 1.6 | 0.00 | 0.00 | 0.00 | 1010.6 | |
| 20260507183709 | -17 | 90 | 0.0 | 0.0 | 0.00 | 0.00 | 0.00 | 1010.3 | |
| 20260507182906 | -17 | 90 | 0.0 | 0.0 | 0.00 | 0.00 | 0.00 | 1009.9 | |
| 20260507182058 | -17 | 90 | 0.0 | 1.6 | 0.00 | 0.00 | 0.00 | 1009.7 | |
| 20260507181250 | -17 | 90 | 0.0 | 3.2 | 0.00 | 0.00 | 0.00 | 1009.8 | |
| 20260507180447 | -17 | 135 | 0.0 | 0.0 | 0.00 | 0.00 | 0.00 | 1009.7 | |
| 20260507175640 | -17 | 90 | 0.0 | 3.2 | 0.00 | 0.00 | 0.00 | 1009.5 | |
| 20260507174835 | -17 | 135 | 0.0 | 3.2 | 0.00 | 0.00 | 0.00 | 1009.5 | |
| 20260507174026 | -17 | 270 | 0.0 | 4.8 | 0.00 | 0.00 | 0.00 | 1009.4 | |
| 20260507173221 | -17 | 135 | 0.0 | 3.2 | 0.00 | 0.00 | 0.00 | 1009.3 | |
| 20260507172416 | -17 | 180 | 0.0 | 3.2 | 0.00 | 0.00 | 0.00 | 1009.1 | |
| 20260507171614 | -17 | 225 | 0.0 | 6.4 | 0.00 | 0.00 | 0.00 | 1009.1 | |
| 20260507170812 | -17 | 45 | 0.0 | 3.2 | 0.00 | 0.00 | 0.00 | 1009.0 | |
| 20260507170009 | -17 | 180 | 0.0 | 3.2 | 0.00 | 0.00 | 0.00 | 1008.8 | |
| 20260507165205 | -17 | 90 | 1.6 | 6.4 | 0.00 | 0.00 | 0.00 | 1008.7 | |
| 20260507164405 | -17 | 68 | 4.8 | 6.4 | 0.00 | 0.00 | 0.00 | 1008.6 | |
| 20260507163602 | -17 | 315 | 4.8 | 8.0 | 0.00 | 0.00 | 0.00 | 1008.6 | |
| 20260507162758 | -17 | 0 | 4.8 | 6.4 | 0.00 | 0.00 | 0.00 | 1008.5 | |
| 20260507161949 | -17 | 45 | 0.0 | 4.8 | 0.00 | 0.00 | 0.00 | 1008.4 | |
| 20260507161147 | -17 | 270 | 6.4 | 9.7 | 0.00 | 0.00 | 0.00 | 1008.4 | |
| 20260507160342 | -17 | 270 | 3.2 | 6.4 | 0.00 | 0.00 | 0.00 | 1008.3 | |
| 20260507155537 | -17 | 135 | 1.6 | 12.9 | 0.00 | 0.00 | 0.00 | 1008.3 | |
| 20260507154732 | -17 | 270 | 8.0 | 11.3 | 0.00 | 0.00 | 0.00 | 1008.1 | |
| 20260507153928 | -17 | 270 | 3.2 | 11.3 | 0.00 | 0.00 | 0.00 | 1007.5 | |
| 20260507153123 | -17 | 90 | 3.2 | 9.7 | 0.00 | 0.00 | 0.00 | 1007.5 | |
| 20260507152316 | -17 | 180 | 3.2 | 6.4 | 0.00 | 0.00 | 0.00 | 1007.5 | |
| 20260507151502 | -17 | 45 | 1.6 | 8.0 | 0.00 | 0.00 | 0.00 | 1007.8 | |
| 20260507150650 | -17 | 293 | 3.2 | 19.3 | 0.00 | 0.00 | 0.00 | 1007.8 | |
| 20260507145844 | -17 | 315 | 9.7 | 19.3 | 0.00 | 0.00 | 0.00 | 1007.9 | |
| 20260507145039 | -17 | 270 | 4.8 | 11.3 | 0.00 | 0.00 | 0.00 | 1007.5 | |
| 20260507144234 | -17 | 315 | 6.4 | 14.5 | 0.00 | 0.00 | 0.00 | 1007.8 | |
| 20260507143431 | -17 | 270 | 6.4 | 8.0 | 0.00 | 0.00 | 0.00 | 1007.7 | |
| 20260507142625 | -17 | 315 | 0.0 | 6.4 | 0.00 | 0.00 | 0.00 | 1008.1 | |
| 20260507141824 | -17 | 270 | 3.2 | 6.4 | 0.00 | 0.00 | 0.00 | 1008.2 | |
| 20260507141019 | -17 | 270 | 3.2 | 17.7 | 0.00 | 0.00 | 0.00 | 1008.2 | |
| 20260507140212 | -17 | 270 | 4.8 | 12.9 | 0.00 | 0.00 | 0.00 | 1007.9 | |
| 20260507135408 | -17 | 270 | 8.0 | 9.7 | 0.00 | 0.00 | 0.00 | 1007.7 | |
| 20260507134601 | -17 | 270 | 1.6 | 8.0 | 0.00 | 0.00 | 0.00 | 1007.6 | |
| 20260507133759 | -17 | 315 | 1.6 | 14.5 | 0.00 | 0.00 | 0.00 | 1007.6 | |
| 20260507132953 | -17 | 315 | 6.4 | 16.1 | 0.00 | 0.00 | 0.00 | 1007.4 | |
| 20260507132150 | -17 | 135 | 1.6 | 9.7 | 0.00 | 0.00 | 0.00 | 1007.7 | |
| 20260507131346 | -17 | 315 | 6.4 | 12.9 | 0.00 | 0.00 | 0.00 | 1007.5 | |
| 20260507130544 | -17 | 315 | 4.8 | 12.9 | 0.00 | 0.00 | 0.00 | 1007.5 | |
| 20260507125737 | -17 | 315 | 3.2 | 16.1 | 0.00 | 0.00 | 0.00 | 1007.8 | |
| 20260507124936 | -17 | 270 | 11.3 | 19.3 | 0.00 | 0.00 | 0.00 | 1007.9 | |
| 20260507124132 | -17 | 225 | 3.2 | 12.9 | 0.00 | 0.00 | 0.00 | 1008.2 | |
| 20260507123322 | -17 | 270 | 4.8 | 12.9 | 0.00 | 0.00 | 0.00 | 1008.1 | |
| 20260507122509 | -17 | 315 | 8.0 | 14.5 | 0.00 | 0.00 | 0.00 | 1008.2 | |
| 20260507121701 | -17 | 315 | 11.3 | 17.7 | 0.00 | 0.00 | 0.00 | 1008.1 | |
| 20260507120859 | -17 | 270 | 14.5 | 17.7 | 0.00 | 0.00 | 0.00 | 1007.9 | |
| 20260507120053 | -17 | 270 | 11.3 | 20.9 | 0.00 | 0.00 | 0.00 | 1008.0 | |
| 20260507115248 | -17 | 203 | 6.4 | 20.9 | 0.00 | 0.00 | 0.00 | 1007.9 | |
| 20260507114439 | -17 | 270 | 9.7 | 17.7 | 0.00 | 0.00 | 0.00 | 1008.1 | |
| 20260507113632 | -17 | 270 | 4.8 | 12.9 | 0.00 | 0.00 | 0.00 | 1008.2 | |
| 20260507112827 | -17 | 270 | 16.1 | 19.3 | 0.00 | 0.00 | 0.00 | 1008.0 | |
| 20260507112021 | -17 | 270 | 12.9 | 25.7 | 0.00 | 0.00 | 0.00 | 1008.1 | |
| 20260507111214 | -17 | 270 | 8.0 | 19.3 | 0.00 | 0.00 | 0.00 | 1008.1 | |
| 20260507110411 | -17 | 270 | 3.2 | 24.1 | 0.00 | 0.00 | 0.00 | 1008.3 | |
| 20260507105606 | -17 | 270 | 8.0 | 17.7 | 0.00 | 0.00 | 0.00 | 1008.2 | |
| 20260507104800 | -17 | 225 | 4.8 | 14.5 | 0.00 | 0.00 | 0.00 | 1008.1 | |
| 20260507103955 | -17 | 225 | 6.4 | 16.1 | 0.00 | 0.00 | 0.00 | 1008.0 | |
| 20260507103151 | -17 | 315 | 6.4 | 12.9 | 0.00 | 0.00 | 0.00 | 1008.0 | |
| 20260507102345 | -17 | 315 | 6.4 | 17.7 | 0.00 | 0.00 | 0.00 | 1008.0 | |
| 20260507101541 | -17 | 315 | 3.2 | 14.5 | 0.00 | 0.00 | 0.00 | 1007.9 | |
| 20260507100738 | -17 | 315 | 3.2 | 9.7 | 0.00 | 0.00 | 0.00 | 1008.2 | |
| 20260507095935 | -17 | 315 | 4.8 | 11.3 | 0.00 | 0.00 | 0.00 | 1008.5 | |
| 20260507095134 | -17 | 270 | 6.4 | 14.5 | 0.00 | 0.00 | 0.00 | 1008.5 | |
| 20260507094330 | -17 | 315 | 6.4 | 17.7 | 0.00 | 0.00 | 0.00 | 1008.4 | |
| 20260507093524 | -17 | 270 | 4.8 | 9.7 | 0.00 | 0.00 | 0.00 | 1008.0 | |
| 20260507092719 | -17 | 270 | 3.2 | 9.7 | 0.00 | 0.00 | 0.00 | 1008.1 | |
| 20260507091916 | -17 | 90 | 4.8 | 9.7 | 0.00 | 0.00 | 0.00 | 1008.0 | |
| 20260507091110 | -17 | 315 | 4.8 | 11.3 | 0.00 | 0.00 | 0.00 | 1008.2 | |
| 20260507090306 | -17 | 270 | 4.8 | 8.0 | 0.00 | 0.00 | 0.00 | 1008.4 | |
| 20260507085459 | -17 | 180 | 1.6 | 9.7 | 0.00 | 0.00 | 0.00 | 1008.1 | |
| 20260507084652 | -17 | 270 | 8.0 | 9.7 | 0.00 | 0.00 | 0.00 | 1008.2 | |
| 20260507083850 | -17 | 270 | 6.4 | 9.7 | 0.00 | 0.00 | 0.00 | 1007.9 | |
| 20260507083046 | -17 | 270 | 3.2 | 9.7 | 0.00 | 0.00 | 0.00 | 1008.0 | |
| 20260507082240 | -17 | 180 | 3.2 | 9.7 | 0.00 | 0.00 | 0.00 | 1008.2 | |
| 20260507081436 | -17 | 270 | 12.9 | 14.5 | 0.00 | 0.00 | 0.00 | 1008.0 | |
| 20260507080631 | -17 | 293 | 4.8 | 11.3 | 0.00 | 0.00 | 0.00 | 1008.1 | |
| 20260507075828 | -17 | 90 | 0.0 | 9.7 | 0.00 | 0.00 | 0.00 | 1007.7 | |
| 20260507075023 | -17 | 315 | 3.2 | 11.3 | 0.00 | 0.00 | 0.00 | 1008.2 | |
| 20260507074221 | -17 | 225 | 0.0 | 12.9 | 0.00 | 0.00 | 0.00 | 1008.4 | |
| 20260507073417 | -17 | 270 | 4.8 | 9.7 | 0.00 | 0.00 | 0.00 | 1008.3 | |
| 20260507072613 | -17 | 315 | 3.2 | 8.0 | 0.00 | 0.00 | 0.00 | 1008.0 | |
| 20260507071808 | -17 | 315 | 6.4 | 12.9 | 0.00 | 0.00 | 0.00 | 1007.9 | |
| 20260507071003 | -17 | 270 | 3.2 | 12.9 | 0.00 | 0.00 | 0.00 | 1007.9 | |
| 20260507070200 | -17 | 270 | 6.4 | 9.7 | 0.00 | 0.00 | 0.00 | 1008.0 | |
| 20260507065357 | -17 | 315 | 4.8 | 8.0 | 0.00 | 0.00 | 0.00 | 1007.8 | |
| 20260507064555 | -17 | 270 | 1.6 | 6.4 | 0.00 | 0.00 | 0.00 | 1008.2 | |
| 20260507063749 | -17 | 270 | 4.8 | 8.0 | 0.00 | 0.00 | 0.00 | 1008.2 | |
| 20260507062947 | -17 | 270 | 1.6 | 6.4 | 0.00 | 0.00 | 0.00 | 1008.1 | |
| 20260507062143 | -17 | 315 | 1.6 | 9.7 | 0.00 | 0.00 | 0.00 | 1008.2 | |
| 20260507061340 | -17 | 315 | 6.4 | 8.0 | 0.00 | 0.00 | 0.00 | 1008.0 | |
| 20260507060535 | -17 | 270 | 8.0 | 8.0 | 0.00 | 0.00 | 0.00 | 1008.0 | |
| 20260507055730 | -17 | 293 | 3.2 | 6.4 | 0.00 | 0.00 | 0.00 | 1008.1 | |
| 20260507054926 | -17 | 270 | 1.6 | 6.4 | 0.00 | 0.00 | 0.00 | 1008.0 | |
| 20260507054123 | -17 | 270 | 3.2 | 8.0 | 0.00 | 0.00 | 0.00 | 1008.0 | |
| 20260507053319 | -17 | 270 | 4.8 | 4.8 | 0.00 | 0.00 | 0.00 | 1008.0 | |
| 20260507052515 | -17 | 225 | 0.0 | 4.8 | 0.00 | 0.00 | 0.00 | 1008.0 | |
| 20260507051704 | -17 | 270 | 1.6 | 4.8 | 0.00 | 0.00 | 0.00 | 1007.9 | |
| 20260507050852 | -17 | 203 | 1.6 | 3.2 | 0.00 | 0.00 | 0.00 | 1008.0 | |
| 20260507050045 | -17 | 270 | 0.0 | 1.6 | 0.00 | 0.00 | 0.00 | 1007.8 | |
| 20260507045241 | -17 | 270 | 1.6 | 3.2 | 0.00 | 0.00 | 0.00 | 1007.7 | |
| 20260507044439 | -17 | 270 | 0.0 | 1.6 | 0.00 | 0.00 | 0.00 | 1007.6 | |
| 20260507043634 | -17 | 180 | 0.0 | 3.2 | 0.00 | 0.00 | 0.00 | 1007.5 | |
| 20260507042831 | -17 | 270 | 1.6 | 1.6 | 0.00 | 0.00 | 0.00 | 1007.4 | |
| 20260507042024 | -17 | 270 | 1.6 | 3.2 | 0.00 | 0.00 | 0.00 | 1007.5 | |
| 20260507041222 | -17 | 270 | 1.6 | 1.6 | 0.00 | 0.00 | 0.00 | 1007.3 | |
| 20260507040419 | -17 | 270 | 0.0 | 1.6 | 0.00 | 0.00 | 0.00 | 1007.1 | |
| 20260507035613 | -17 | 225 | 0.0 | 0.0 | 0.00 | 0.00 | 0.00 | 1007.2 | |
| 20260507034808 | -17 | 270 | 0.0 | 4.8 | 0.00 | 0.00 | 0.00 | 1007.3 | |
| 20260507034002 | -17 | 315 | 3.2 | 3.2 | 0.00 | 0.00 | 0.00 | 1007.4 | |
| 20260507033158 | -17 | 270 | 1.6 | 1.6 | 0.00 | 0.00 | 0.00 | 1007.2 | |
| 20260507032350 | -17 | 270 | 0.0 | 1.6 | 0.00 | 0.00 | 0.00 | 1006.9 | |
| 20260507031545 | -17 | 225 | 0.0 | 1.6 | 0.00 | 0.00 | 0.00 | 1006.6 | |
| 20260507030739 | -17 | 90 | 0.0 | 1.6 | 0.00 | 0.00 | 0.00 | 1006.6 | |
| 20260507025936 | -17 | 315 | 0.0 | 0.0 | 0.00 | 0.00 | 0.00 | 1006.5 | |
| 20260507025132 | -17 | 225 | 0.0 | 1.6 | 0.00 | 0.00 | 0.00 | 1006.5 | |
| 20260507024328 | -17 | 270 | 0.0 | 1.6 | 0.00 | 0.00 | 0.00 | 1006.4 | |
| 20260507023527 | -17 | 90 | 0.0 | 0.0 | 0.00 | 0.00 | 0.00 | 1006.4 | |
| 20260507022722 | -17 | 90 | 0.0 | 3.2 | 0.00 | 0.00 | 0.00 | 1006.3 | |
| 20260507021917 | -17 | 90 | 1.6 | 1.6 | 0.00 | 0.00 | 0.00 | 1006.0 | |
| 20260507021112 | -17 | 90 | 1.6 | 1.6 | 0.00 | 0.00 | 0.00 | 1005.9 | |
| 20260507020314 | -17 | 315 | 0.0 | 4.8 | 0.00 | 0.00 | 0.00 | 1006.0 | |
| 20260507015510 | -17 | 315 | 1.6 | 4.8 | 0.00 | 0.00 | 0.00 | 1005.7 | |
| 20260507014705 | -17 | 180 | 1.6 | 1.6 | 0.00 | 0.00 | 0.00 | 1005.4 | |
| 20260507013904 | -17 | 135 | 1.6 | 3.2 | 0.00 | 0.00 | 0.00 | 1005.1 | |
| 20260507013059 | -17 | 45 | 0.0 | 3.2 | 0.00 | 0.00 | 0.00 | 1005.1 | |
| 20260507012255 | -17 | 180 | 3.2 | 3.2 | 0.00 | 0.00 | 0.00 | 1005.1 | |
| 20260507011450 | -17 | 315 | 1.6 | 4.8 | 0.00 | 0.00 | 0.00 | 1005.0 | |
| 20260507010648 | -17 | 315 | 0.0 | 3.2 | 0.00 | 0.00 | 0.00 | 1005.0 | |
| 20260507005846 | -17 | 90 | 0.0 | 4.8 | 0.00 | 0.00 | 0.00 | 1005.0 | |
| 20260507005041 | -17 | 90 | 0.0 | 3.2 | 0.00 | 0.00 | 0.00 | 1004.9 | |
| 20260507004239 | -17 | 225 | 1.6 | 3.2 | 0.00 | 0.00 | 0.00 | 1004.9 | |
| 20260507003434 | -17 | 45 | 1.6 | 6.4 | 0.00 | 0.00 | 0.00 | 1004.5 | |
| 20260507002631 | -17 | 90 | 1.6 | 9.7 | 0.00 | 0.00 | 0.00 | 1004.5 | |
| 20260507001826 | -17 | 45 | 0.0 | 9.7 | 0.00 | 0.00 | 0.00 | 1004.4 | |
| 20260507001020 | -17 | 45 | 4.8 | 6.4 | 0.00 | 0.00 | 0.00 | 1004.5 | |
| 20260507000213 | -17 | 315 | 3.2 | 8.0 | 0.00 | 0.00 | 0.00 | 1004.4 | |
| 20260506235411 | -17 | 180 | 4.8 | 12.9 | 0.00 | 0.00 | 0.00 | 1004.4 | |
| 20260506234606 | -17 | 90 | 1.6 | 6.4 | 0.00 | 0.00 | 0.00 | 1004.2 | |
| 20260506233800 | -17 | 45 | 3.2 | 11.3 | 0.00 | 0.00 | 0.00 | 1004.1 | |
| 20260506232958 | -17 | 45 | 3.2 | 12.9 | 0.00 | 0.00 | 0.00 | 1003.9 | |
| 20260506232155 | -17 | 45 | 1.6 | 8.0 | 0.00 | 0.00 | 0.00 | 1004.1 | |
| 20260506231352 | -17 | 45 | 0.0 | 1.6 | 0.00 | 0.00 | 0.00 | 1003.9 | |
| 20260506230551 | -17 | 45 | 0.0 | 0.0 | 0.00 | 0.00 | 0.00 | 1003.6 | |
| 20260506225748 | -17 | 90 | 0.0 | 0.0 | 0.00 | 0.00 | 0.00 | 1003.3 | |
| 20260506224945 | -17 | 270 | 0.0 | 4.8 | 0.00 | 0.00 | 0.00 | 1003.1 | |
| 20260506224137 | -17 | 90 | 0.0 | 0.0 | 0.00 | 0.00 | 0.00 | 1002.8 | |
| 20260506223334 | -17 | 270 | 0.0 | 4.8 | 0.00 | 0.00 | 0.00 | 1002.8 | |
| 20260506222531 | -17 | 315 | 1.6 | 4.8 | 0.00 | 0.00 | 0.00 | 1002.8 | |
| 20260506221725 | -17 | 315 | 3.2 | 9.7 | 0.00 | 0.00 | 0.00 | 1002.6 |